Regional Weather Roundup
Issued by NWS

Home | Current Version | Previous Version | Graphics & Text | Print | Product List | Glossary On
Versions: 1 2 3 4 5 6 7 8 9 10 11 12 13 14 15 16 17 18 19 20 21 22 23 24 25 26 27 28 29 30 31 32 33 34 35 36 37 38 39 40 41 42 43 44 45 46 47 48 49 50
452
ASUS43 KIND 250059
RWRIN

WEATHER ROUNDUP FOR INDIANA
NATIONAL WEATHER SERVICE INDIANAPOLIS IN
900 PM EDT MON JUL 24 2017

NOTE: "FAIR" INDICATES FEW OR NO CLOUDS BELOW 12,000 FEET WITH NO
SIGNIFICANT WEATHER AND/OR OBSTRUCTIONS TO VISIBILITY.

* - STATION DOES NOT REPORT WEATHER SUCH AS PRECIPITATION OR FOG.

+ - STATION NOT QUALITY CONTROLLED BY THE NATIONAL WEATHER SERVICE.
    USE DATA WITH CAUTION...ESPECIALLY DEWPOINT AND RELATIVE
    HUMIDITY OBSERVATIONS.

INZ001>003-010>013-019-020-250200-
NORTHWEST INDIANA

CITY           SKY/WX    TMP DP  RH WIND       PRES   REMARKS
GARY /AIRPORT/ MOCLDY    70  59  68 NE10      30.08S
MICHIGAN CITY+ PTCLDY    66  61  82 CALM      30.08R
MONTICELLO +   CLEAR     71  61  70 N5        30.04R
RENSSELAER +   CLEAR     68  61  77 N6        30.06S

$$

LMZ046-743>745-250200-
SOUTHERN LAKE MICHIGAN

STATION/POSITION TIME  TEMP    WIND        PRES    WAVE
                       AIR SEA DIR/SP/G            HT
                 (UTC) (F)     (DEG/KT/KT) (MB)    (FT)
BURNS HARBOR     0040   69      20/ 10/ 12 1018.6R
MICHIGAN CITY    0030   69      10/ 12/ 12   N/A
5NW MICH CITY    0050   70 74   20/ 10/ 14   N/A     4

$$

INZ004-005-014>016-021>024-250200-
NORTH CENTRAL INDIANA

CITY           SKY/WX    TMP DP  RH WIND       PRES   REMARKS
ELKHART        CLEAR     72  55  56 E5        30.06R
GOSHEN         CLEAR     69  57  65 E5        30.07R
SOUTH BEND     CLEAR     71  58  63 NE3       30.07R
WARSAW +       CLEAR     68  55  64 CALM      30.07R

$$

INZ006>009-017-018-025>027-250200-
NORTHEAST INDIANA

CITY           SKY/WX    TMP DP  RH WIND       PRES   REMARKS
FORT WAYNE     PTCLDY    68  57  68 NE9       30.07R
KENDALLVILLE + CLEAR     66  59  76 CALM      30.08R

$$

INZ028-029-035-036-043>045-051>053-250200-
WEST CENTRAL INDIANA

CITY           SKY/WX    TMP DP  RH WIND       PRES   REMARKS
LAFAYETTE      CLEAR     72  62  71 N5        30.03R
TERRE HAUTE    CLEAR     75  67  76 N3        30.02R

$$

INZ030>032-037>040-046>048-054>057-064-065-250200-
CENTRAL INDIANA

CITY           SKY/WX    TMP DP  RH WIND       PRES   REMARKS
COLUMBUS       CLEAR     73  66  78 NE6       30.01R
FRANKFORT +    CLEAR     74  65  73 NE6       30.06R
GREENWOOD *+   PTCLDY   N/A N/A N/A NE8       30.03R
INDIANAPOLIS   PTCLDY    76  63  64 NE12      30.01R
-EAGLE CREEK   PTCLDY    76  63  64 NE6       30.02R
KOKOMO +       CLEAR     70  61  73 NE6       30.06R
MT COMFORT *+  CLEAR     73  64  73 NE6       30.03R
SHELBYVILLE    CLEAR     75  62  64 NE7       30.02R

$$

INZ033-034-041-042-049-050-058-059-250200-
EAST CENTRAL INDIANA

CITY           SKY/WX    TMP DP  RH WIND       PRES   REMARKS
MUNCIE         CLEAR     71  60  68 NE6       30.05R
RICHMOND +     CLEAR     68  61  77 NE7       30.05R

$$

INZ060-061-067>069-081>083-085>088-250200-
SOUTHWEST INDIANA

CITY           SKY/WX    TMP DP  RH WIND       PRES   REMARKS
EVANSVILLE     CLEAR     80  68  66 NE7       29.97R
HUNTINGBURG *+ CLEAR     79  69  71 N3        29.98R

$$

INZ062-063-066-070>080-084-089>092-250200-
SOUTH CENTRAL AND SOUTHEAST INDIANA

CITY           SKY/WX    TMP DP  RH WIND       PRES   REMARKS
BLOOMINGTON    CLEAR     76  65  68 N7        30.01R
MADISON *+     CLEAR     77  63  61 N3        30.03R
SEYMOUR +      CLEAR    N/A N/A N/A NE6       30.00R

$$





USA.gov is the U.S. government's official web portal to all federal, state and local government web resources and services.